Location: *
(51.0333°S, 178.4667°E)
Time: 16:24:08
(UTC+00:00)

IRS-1A Rocket - Pass Details

Date: 15 November 2019
Orbit: 852 x 931 km, 99.2° (Epoch: 11 December)

Event Time Altitude Azimuth Distance (km) Brightness Sun altitude
Rises 08:45:21 0° 165° (SSE) 3,497 7.9 -9.5°
Reaches altitude 10° 08:47:46 10° 166° (SSE) 2,544 7.2 -9.8°
Maximum altitude 08:53:24 79° 251° (WSW) 891 4.4 -10.4°
Drops below altitude 10° 08:58:56 10° 336° (NNW) 2,494 6.4 -11.0°
Sets 09:01:17 0° 337° (NNW) 3,422 7.1 -11.2°
